Back to catalog

PRAETORIAN SDA_506

AlivePO
NORAD 100064·PAYLOAD·🇺🇸 United States

Launched Jul 16, 2026 from Vandenberg Space Force Base

Loading…

Next Passes (next 24 hours)

TLE

FreshSource: Space-Track

Epoch: Sep 14, 2026, 10:53 UTC

1 A0064U 26163F   26257.45362746  .00000154  00000-0  12281-3 0  9994
2 A0064  81.4774 255.4295 0017159  56.3679 303.9114 13.86057398  8261

Track PRAETORIAN SDA_506 in real time with AllMySat

Download on the App Store